Location: Lafig�re
(44.4503°N, 4.0357°E)
Time: 16:44:24
(UTC+00:00)

Cosmos 2278 Rocket - Pass Details

Date: 24 September 2020
Orbit: 841 x 845 km, 71.0° (Epoch: 25 October)

Event Time Altitude Azimuth Distance (km) Brightness Sun altitude
Rises 19:41:41 0° 190° (S) 3,382 5.2 -22.6°
Reaches altitude 10° 19:44:09 10° 187° (S) 2,451 4.4 -23.0°
Enters shadow 19:46:08 22° 180° (S) 1,744 3.6 -23.3°
Exits shadow 19:51:21 41° 56° (NE) 1,212 2.7 -24.2°
Drops below altitude 10° 19:55:10 10° 33° (NNE) 2,468 4.5 -24.8°
Sets 19:57:39 0° 29° (NNE) 3,407 5.3 -25.2°
